Theta_e
342 341 341 341 342 341 340 341 342 342 342 341 341 340 340 339 339 340 339 339 337 334 330 327 323 317 318 320 318 318 319 321 321 320 319 320 322 323 324 326 326 326 327 327 326 325 325 327 327 326 325 325 327 327 332 336 333 332 332 332 334 335
341 341 341 341 341 341 341 341 341 341 341 341 342 341 340 340 340 340 339 338 335 330 326 324 322 316 313 315 316 317 318 318 319 318 317 319 322 323 325 325 325 326 327 326 325 325 325 326 324 324 325 326 328 329 332 335 333 333 334 334 336 337
340 341 340 341 341 341 342 341 341 341 341 341 341 341 341 341 340 339 338 336 331 328 327 324 320 316 312 313 316 318 318 316 316 317 315 318 322 325 326 326 325 326 326 325 325 324 323 324 324 326 330 329 330 331 333 334 334 334 335 336 337 337
339 340 340 340 340 341 342 341 341 342 341 341 341 341 341 340 339 338 336 331 328 329 329 325 322 320 316 313 316 319 319 318 316 316 314 316 321 325 325 325 326 326 325 324 322 321 322 324 327 331 333 331 331 333 334 334 334 335 336 337 336 337
339 340 340 340 340 341 342 341 341 342 341 342 341 341 341 340 339 337 333 328 329 332 332 328 326 326 320 314 316 319 321 322 318 315 314 314 317 322 324 325 325 323 321 320 320 323 325 327 331 334 333 331 333 335 335 334 335 334 336 337 336 337
339 340 339 339 340 341 342 341 341 341 341 342 341 341 341 339 338 334 330 329 332 334 334 331 329 327 321 316 317 319 321 322 319 315 314 313 313 317 320 320 319 318 318 321 325 329 330 331 333 334 332 332 334 335 335 335 334 335 335 336 336 336
339 339 338 338 340 341 342 341 341 342 341 341 341 341 340 339 335 330 330 332 334 334 333 331 329 326 320 318 318 320 321 320 319 317 316 316 316 317 320 322 323 324 325 327 330 332 333 334 334 333 333 334 335 335 335 334 334 333 333 333 332 331
338 339 339 339 340 342 342 341 341 342 342 341 341 340 339 338 332 329 333 334 334 334 333 331 328 323 321 321 319 320 321 320 320 320 321 321 322 323 326 330 332 331 331 332 333 333 334 334 334 333 334 335 335 335 334 333 331 330 329 328 326 325
339 339 339 339 340 341 342 341 341 342 341 341 341 339 339 336 330 331 334 334 334 335 334 332 328 325 323 322 320 320 320 321 322 322 324 324 326 327 328 331 333 333 334 334 333 333 333 334 334 334 335 336 335 334 332 330 329 327 326 325 324 323
337 338 339 340 341 341 342 341 340 341 340 340 339 338 338 333 330 333 334 334 335 335 334 333 331 329 326 323 320 319 320 321 322 324 326 328 330 329 328 331 333 334 335 335 333 333 333 334 335 335 336 336 334 331 329 327 327 326 326 326 324 322
335 337 339 339 341 341 341 341 340 340 339 339 338 338 337 332 331 333 333 334 335 335 335 334 333 333 331 327 322 320 321 323 325 327 329 330 331 330 329 332 335 335 334 334 333 332 333 334 335 336 336 335 331 329 327 326 326 326 326 326 324 322
335 337 338 339 340 341 340 340 339 339 338 338 338 338 336 333 334 334 334 334 334 334 335 335 335 334 334 333 329 325 323 325 327 328 330 330 331 332 331 333 336 334 333 333 332 332 333 334 336 336 335 332 329 327 325 325 326 326 326 325 323 320
336 337 337 337 339 340 339 339 338 337 337 337 338 337 336 336 337 336 336 335 334 334 334 335 335 336 336 336 335 331 327 327 328 328 330 331 332 333 333 335 336 334 333 333 332 332 332 333 336 336 333 329 327 326 326 326 327 326 324 322 318 313
337 337 336 335 337 338 338 338 337 336 336 337 338 337 337 339 339 339 338 336 335 335 334 335 336 337 337 335 335 333 330 329 329 330 331 332 333 335 336 336 335 333 332 332 332 333 332 334 336 335 330 327 326 326 326 327 326 324 321 317 312 306
337 337 337 336 336 336 336 336 336 336 337 338 338 338 338 340 340 340 338 336 335 336 334 335 337 338 337 336 334 333 332 331 332 334 334 334 335 336 337 336 335 333 332 332 333 333 333 335 335 332 329 326 326 326 327 326 323 320 316 313 308 304
338 338 339 338 337 336 336 335 335 337 339 340 338 339 339 340 341 340 338 335 336 336 334 335 338 339 338 337 335 334 333 333 335 336 336 336 336 337 337 336 335 334 333 333 333 333 334 335 334 331 329 326 325 327 327 324 319 316 313 312 309 305
339 339 340 339 339 339 337 335 337 339 341 341 340 340 340 340 341 340 338 335 336 337 336 338 339 339 339 337 336 336 335 334 335 337 336 337 337 337 336 335 335 334 333 333 331 331 331 332 333 331 329 327 326 328 325 320 316 314 313 311 309 306
340 340 341 340 340 341 339 336 338 341 342 342 342 341 341 341 341 340 338 335 336 338 339 339 339 338 338 337 336 336 336 336 336 337 337 338 337 336 335 334 335 334 333 332 330 329 328 329 330 329 328 327 326 325 321 317 314 313 312 310 309 308
340 340 341 341 341 341 340 338 339 341 342 342 343 342 342 341 341 341 338 336 337 338 339 340 339 337 337 337 337 336 336 337 337 338 337 337 336 335 334 334 334 333 332 330 329 328 327 327 325 324 324 323 322 320 317 315 314 312 311 310 309 308
341 341 341 341 341 341 341 340 340 342 343 342 343 342 342 342 342 341 339 337 338 339 339 339 338 337 337 337 336 336 337 337 338 338 337 336 335 334 334 334 334 333 330 325 323 324 325 323 320 317 317 316 316 315 314 314 312 311 310 310 309 308
340 340 341 341 341 341 341 341 341 343 343 343 343 343 343 342 341 340 338 338 339 339 339 339 338 337 337 336 336 336 337 338 338 337 337 336 335 334 334 334 333 332 329 323 319 319 321 320 316 313 312 312 311 311 311 310 310 309 309 309 309 309
340 339 340 341 340 341 341 341 341 342 342 343 343 343 342 341 340 339 339 339 340 339 339 339 338 337 336 336 336 337 337 338 337 337 336 335 334 334 333 334 333 329 327 324 320 318 320 320 316 312 311 311 311 311 309 308 308 307 308 308 308 306
339 339 340 340 339 340 341 340 341 342 342 343 343 342 341 340 340 340 340 340 340 340 339 339 338 337 336 336 337 336 337 337 337 336 335 334 333 333 333 334 334 330 326 323 321 320 321 323 318 313 314 316 315 315 313 309 308 307 306 306 305 302
339 339 339 339 339 339 340 340 340 341 342 342 342 341 340 340 340 340 340 340 340 339 339 338 338 336 336 336 336 336 337 337 336 335 335 334 333 332 333 333 333 333 329 325 320 319 323 325 322 319 321 323 319 319 319 313 309 308 306 304 303 302
339 339 339 339 340 340 340 341 341 341 341 341 341 341 340 340 340 340 340 340 339 339 338 338 337 336 336 336 336 336 337 337 335 334 334 333 333 332 332 332 332 332 332 328 323 321 324 326 325 323 326 326 324 327 324 314 309 309 307 305 305 304
339 339 339 340 340 340 341 341 341 341 341 341 340 340 340 340 340 340 340 339 339 338 337 337 337 336 335 336 337 336 336 335 334 334 333 333 333 333 332 332 332 332 331 331 328 324 324 326 326 324 326 327 328 331 322 312 313 313 309 307 306 306
339 339 338 339 340 341 341 341 341 341 341 340 339 339 340 340 340 340 339 339 339 338 337 337 336 335 335 336 337 336 335 334 334 333 333 333 332 332 332 331 331 330 330 331 331 327 326 327 325 324 326 327 327 329 321 314 315 314 312 311 307 306
339 339 338 339 340 341 341 341 341 341 340 340 340 340 340 340 340 339 339 339 338 337 337 337 336 336 336 336 336 335 334 334 333 333 333 332 332 332 332 331 330 330 329 329 329 328 327 328 327 325 325 326 326 327 322 317 316 313 314 315 310 307
338 338 338 339 340 340 340 341 341 340 340 340 340 340 340 339 339 339 339 338 338 337 337 337 336 336 336 335 335 334 333 333 333 333 332 331 331 331 330 330 330 329 329 328 326 325 325 327 329 328 325 325 325 323 319 317 316 311 312 315 314 310
338 338 339 339 340 340 340 341 341 340 340 340 340 340 339 339 339 339 339 338 338 337 337 337 337 336 335 334 334 333 333 333 332 332 331 331 330 330 329 328 328 329 329 328 325 321 321 324 328 328 327 325 324 320 317 314 313 311 310 310 311 310
338 338 339 340 340 340 340 341 341 340 340 340 340 339 339 338 338 338 338 338 338 338 337 337 336 335 334 334 333 333 332 332 331 331 330 330 329 328 327 327 327 327 326 325 323 318 317 320 323 324 323 323 324 322 319 316 313 312 311 308 309 310
338 338 339 340 340 340 340 340 341 340 340 340 340 339 339 338 338 338 337 337 337 337 337 336 336 335 334 333 333 332 331 331 331 330 329 328 327 326 326 325 325 326 324 321 319 316 314 315 316 317 319 320 322 321 320 319 316 314 312 309 309 309
338 338 338 339 340 340 340 340 340 340 340 340 339 339 338 338 338 337 337 337 336 336 335 335 334 334 333 332 332 332 331 330 330 329 327 326 326 325 324 323 323 323 322 320 318 315 313 312 313 314 316 317 318 317 316 317 317 315 312 309 309 308
338 338 339 339 339 340 340 340 340 340 340 340 339 338 338 338 338 337 337 337 336 336 335 334 334 332 332 331 331 331 330 329 328 327 326 325 324 323 321 321 321 320 320 318 316 314 312 312 312 312 313 314 314 313 313 313 314 315 313 309 309 309
338 338 339 340 340 340 340 340 340 340 340 339 339 338 337 337 337 337 336 336 336 335 335 334 333 332 331 330 329 329 328 328 327 325 324 322 321 319 317 317 318 317 317 315 314 313 312 311 311 311 311 311 311 311 311 311 312 313 312 309 309 310
337 338 339 339 340 340 340 340 339 339 339 339 338 337 337 337 337 336 336 336 335 335 334 334 333 332 330 329 328 327 327 327 325 323 321 319 317 314 313 315 317 316 315 314 313 313 311 311 310 309 309 309 309 309 309 310 310 310 310 309 309 310
337 338 338 339 339 339 339 339 339 339 339 339 338 337 337 337 336 336 335 335 335 334 334 333 332 331 330 329 327 326 327 325 322 320 317 315 313 311 312 314 315 314 314 313 312 311 310 309 308 308 307 306 306 307 307 308 309 309 309 308 309 309
Wind_Speed
28 28 27 25 24 23 22 21 21 20 19 18 17 16 16 15 14 13 11 10 9 8 7 7 8 8 9 9 10 9 10 12 12 11 11 13 14 13 12 11 10 9 9 8 6 5 2 1 4 5 6 7 7 6 4 3 4 6 7 9 10 9
29 29 27 25 24 23 23 22 21 21 19 18 17 16 16 15 14 13 12 11 10 8 7 7 7 7 8 10 11 10 9 11 11 11 11 13 14 13 12 12 11 11 9 8 6 4 1 3 4 5 5 5 5 5 4 5 6 7 10 11 10 9
30 29 28 26 25 24 24 23 22 21 21 19 18 17 17 16 15 14 13 11 10 8 7 7 7 7 7 9 10 10 9 10 11 11 12 13 14 14 13 13 12 11 9 7 5 3 2 3 3 4 3 4 5 5 6 7 7 9 11 11 10 9
30 29 29 28 26 25 24 24 23 22 22 21 19 18 18 17 15 14 13 11 10 9 7 7 7 7 7 9 10 10 10 10 10 11 12 13 14 15 15 14 12 10 8 5 3 2 2 2 3 3 2 4 7 7 8 8 9 11 12 11 10 10
30 30 29 28 27 26 25 25 24 23 22 21 20 20 19 17 15 14 13 11 11 9 8 8 9 9 8 9 10 11 10 9 10 11 11 11 12 14 13 12 9 8 5 2 1 1 2 2 3 1 4 8 9 9 9 10 11 12 13 12 11 10
31 30 30 29 28 27 26 26 26 25 23 22 21 20 19 17 15 14 13 12 12 10 9 9 9 10 9 9 10 10 10 9 9 9 9 9 9 10 9 8 6 5 4 2 0 2 2 2 1 3 8 11 11 12 11 12 13 13 13 12 10 9
32 30 30 30 29 27 26 27 27 25 24 23 22 21 19 17 15 14 14 13 12 11 10 10 9 10 9 9 9 9 9 8 8 9 8 8 8 7 7 6 4 4 3 2 0 1 0 1 2 6 12 14 13 13 12 13 14 13 13 13 11 9
32 31 31 31 30 28 27 28 27 24 23 24 23 22 19 17 16 15 15 13 12 11 10 9 9 9 9 8 8 8 8 8 8 8 7 7 6 5 4 3 2 2 2 1 1 3 3 4 6 9 13 15 14 14 14 15 15 15 15 15 13 11
33 32 32 31 30 29 28 28 27 24 24 24 23 22 20 18 17 17 16 14 12 11 11 10 9 9 8 7 7 8 8 8 8 7 6 5 4 3 2 1 1 2 2 2 3 6 6 6 9 12 15 16 16 16 16 17 17 17 16 14 14 12
35 34 33 32 31 30 28 28 27 26 26 25 23 21 20 19 18 18 16 15 13 12 11 10 9 8 8 7 7 8 8 8 7 6 5 4 2 2 1 1 1 2 2 4 5 8 8 9 13 15 16 17 17 17 17 18 18 16 15 13 12 12
36 35 34 33 32 31 29 28 28 27 26 24 23 21 21 20 20 19 16 15 14 13 12 11 9 8 8 7 7 8 8 8 7 6 5 3 2 2 2 1 1 3 4 6 7 8 10 12 15 16 16 16 17 19 19 19 18 15 13 12 10 11
37 35 35 34 33 32 30 29 28 27 25 23 23 22 22 21 20 19 17 16 15 14 14 13 11 10 9 9 9 9 9 9 8 7 6 5 3 3 3 4 4 5 6 7 7 8 11 14 16 16 16 18 20 21 19 18 16 14 12 11 10 9
37 36 35 35 34 33 30 28 27 26 24 23 22 22 23 22 20 18 17 17 17 15 15 14 13 12 12 12 12 11 11 11 10 9 8 7 5 5 5 6 7 7 7 8 7 10 13 16 17 17 18 21 22 21 19 16 14 12 11 10 9 9
38 37 35 35 34 33 30 27 26 25 23 23 23 23 23 22 19 18 18 18 17 15 15 15 14 13 14 13 13 13 12 11 11 10 9 8 7 7 7 8 9 9 8 8 9 12 16 18 19 20 21 23 22 20 17 15 13 12 11 10 10 9
38 37 35 35 34 31 29 27 26 25 24 23 23 23 24 22 19 18 18 18 16 15 15 16 15 13 14 14 14 13 13 12 10 10 10 9 9 9 9 9 10 10 10 11 14 16 18 20 22 22 23 23 22 19 16 15 14 12 11 11 11 11
38 37 35 34 33 30 28 27 26 25 24 24 23 23 23 21 19 19 19 18 17 16 17 16 15 14 14 15 15 14 14 13 12 11 11 10 10 9 9 10 10 10 13 17 19 20 21 22 23 23 22 23 22 18 15 15 13 13 12 11 12 13
39 38 36 33 31 29 27 27 26 25 24 23 24 24 23 21 19 20 20 21 19 18 18 16 15 14 14 14 15 15 15 15 14 12 11 11 10 9 9 11 12 13 18 22 23 23 23 22 23 23 22 22 20 17 15 15 13 12 12 12 14 15
39 38 36 34 31 29 27 26 26 25 24 23 23 23 24 22 20 21 22 22 20 18 18 16 15 14 13 13 14 15 15 14 14 12 12 11 11 10 11 12 14 18 21 23 25 26 26 25 24 24 22 21 19 17 16 15 14 12 12 13 14 15
40 38 36 34 32 29 27 27 27 26 25 24 24 23 24 23 22 23 23 22 21 19 18 17 15 13 13 13 14 15 15 15 13 13 13 12 12 13 13 14 17 22 23 24 27 29 29 28 27 24 23 20 18 17 16 14 13 12 12 12 12 13
40 39 37 35 33 31 29 29 29 28 27 26 26 24 24 24 23 24 24 22 21 20 19 17 15 13 13 13 13 14 15 15 13 13 14 14 14 14 15 17 21 25 26 27 28 31 31 31 29 25 22 20 17 15 15 14 13 12 12 11 11 12
38 39 38 37 35 34 32 31 30 29 28 27 27 25 24 25 25 25 23 22 22 21 19 17 15 13 13 13 12 12 14 14 14 13 13 14 15 15 15 19 23 26 28 29 29 30 32 32 30 24 19 18 17 15 14 13 13 12 12 12 11 11
36 37 38 38 36 34 34 33 31 29 29 27 27 26 26 27 27 25 23 23 22 21 19 18 16 15 14 13 13 12 13 14 14 13 13 14 16 16 17 20 25 26 27 30 30 30 32 27 22 20 19 16 13 13 13 12 13 12 12 11 10 9
36 36 37 37 35 34 33 33 30 28 28 27 27 27 27 27 27 24 23 23 22 21 19 18 16 16 15 14 13 12 13 13 13 14 15 17 18 17 18 20 24 26 27 27 27 31 29 18 16 21 18 10 5 6 7 8 10 12 12 12 11 13
36 35 35 35 34 33 31 31 29 27 27 26 26 27 27 28 27 25 24 23 21 19 18 17 16 16 15 14 13 13 13 14 14 15 17 19 19 19 19 19 22 26 27 26 25 28 22 13 18 21 10 4 3 4 2 3 7 9 10 11 12 13
36 35 34 34 34 33 31 30 27 26 25 24 24 27 27 27 26 26 24 23 20 18 17 17 16 15 14 14 13 13 14 15 16 17 17 18 19 19 19 19 21 24 27 27 25 26 20 12 18 19 9 5 4 1 2 6 8 6 6 9 9 10
36 36 34 34 35 34 33 32 30 28 27 25 25 26 27 27 26 26 24 22 20 18 17 17 16 15 13 13 13 14 15 17 18 18 17 17 18 18 19 19 20 21 24 25 24 25 21 15 17 17 11 8 4 2 8 10 6 2 3 5 6 7
37 37 35 35 35 36 34 33 32 31 28 27 25 25 26 27 27 26 23 21 20 18 17 16 15 14 14 14 15 15 17 18 18 18 17 17 16 16 17 17 18 19 20 21 23 24 22 19 20 16 12 9 3 3 14 14 7 4 3 3 5 7
37 37 36 36 36 36 36 34 33 31 28 27 26 25 25 26 26 25 23 21 20 18 17 15 14 14 15 15 16 17 18 18 17 17 16 16 15 14 15 15 16 18 18 19 20 22 22 22 22 18 14 11 5 7 16 15 13 12 6 2 4 5
36 36 36 36 36 36 35 34 33 30 28 26 26 27 26 25 24 23 23 21 20 18 16 15 14 15 16 17 17 17 18 17 16 16 15 14 13 13 14 15 16 17 18 18 18 18 19 21 24 21 17 13 9 12 14 10 13 13 7 5 4 3
36 36 36 37 36 35 35 34 33 31 29 27 25 26 26 24 23 23 23 22 20 19 17 16 16 17 18 18 18 17 17 16 15 15 14 13 13 14 14 14 15 15 16 18 18 16 16 19 22 21 18 16 13 15 12 7 10 12 8 7 4 4
36 35 36 37 36 35 35 35 34 32 31 29 27 27 26 24 24 24 24 23 21 20 19 18 18 19 19 19 18 17 16 16 14 14 13 13 13 14 13 13 13 13 15 17 16 16 16 17 18 18 16 16 16 17 14 11 15 16 11 9 7 6
34 35 37 37 37 36 35 35 34 33 32 31 29 29 27 26 26 25 25 24 22 21 20 20 20 21 21 20 18 17 16 15 14 13 13 13 13 13 13 13 13 13 15 16 15 16 16 16 16 16 14 14 15 17 14 12 18 19 14 17 17 10
35 36 38 38 37 37 36 35 34 34 33 32 31 30 29 28 28 27 27 26 25 24 23 22 22 22 21 20 19 18 16 15 13 13 14 13 13 12 13 13 13 14 15 16 15 15 15 15 15 14 14 14 13 13 10 9 15 17 14 21 25 15
36 36 38 38 38 37 36 35 34 34 33 32 31 30 30 30 29 29 28 28 27 26 25 23 22 22 21 20 19 18 16 14 13 14 14 12 12 12 12 13 14 14 15 16 15 14 14 14 14 14 13 13 11 10 9 9 14 16 16 22 27 22
36 36 37 38 38 37 36 35 34 34 34 33 32 31 30 30 31 30 30 29 28 27 26 24 23 21 20 19 18 17 15 14 14 14 13 12 12 12 12 13 14 15 15 15 14 14 13 14 14 14 13 13 12 11 10 10 12 14 18 23 26 29
37 37 38 39 38 37 36 35 34 34 34 33 32 31 30 30 31 31 30 29 29 28 26 25 23 21 20 19 18 17 15 15 15 14 12 12 13 13 13 15 16 16 15 15 14 14 14 14 14 14 13 12 12 12 11 11 13 14 18 22 24 30
35 36 37 38 37 37 36 35 34 34 34 34 33 33 32 31 31 31 30 29 29 27 26 25 23 22 20 19 18 16 16 16 15 13 12 13 13 13 15 16 17 16 15 15 14 14 14 15 14 14 13 12 12 13 12 12 13 14 16 18 23 27
Wind_Direction
179 178 180 178 174 174 175 175 175 175 176 177 177 179 181 183 184 184 187 189 185 188 193 193 188 179 177 175 173 178 184 183 182 184 187 189 187 182 176 173 174 177 180 185 188 185 170 41 22 23 20 28 35 39 58 89 85 82 81 77 74 73
180 181 180 177 175 176 176 178 178 179 179 181 181 183 185 187 189 189 190 193 193 197 202 201 200 190 182 179 175 175 180 182 181 183 186 187 187 183 181 180 183 188 191 193 197 203 240 2 13 17 19 30 38 45 76 114 106 89 81 77 76 77
181 182 181 179 178 178 179 180 180 181 182 183 183 187 190 191 193 194 193 195 195 196 201 205 208 203 191 183 179 175 176 181 183 184 184 185 189 188 188 188 191 196 198 201 216 257 326 356 15 22 23 49 66 80 108 121 107 92 86 83 82 80
181 183 183 181 180 180 182 183 182 183 184 184 185 192 195 194 195 196 197 197 192 190 195 201 208 209 200 187 181 179 178 181 185 186 187 188 192 193 192 194 198 203 209 220 250 307 332 353 15 16 50 85 97 112 122 120 106 97 95 91 88 86
181 184 184 182 181 183 184 184 184 185 186 185 188 195 198 195 194 197 199 195 190 191 194 201 207 207 201 192 185 185 185 187 186 186 190 192 194 197 198 201 206 210 215 223 252 322 314 335 5 30 111 107 114 127 127 120 110 104 102 96 94 93
182 185 185 184 183 184 186 185 186 188 187 188 192 197 200 195 192 196 196 191 192 195 200 205 207 204 199 193 192 192 192 190 186 184 186 186 187 191 193 196 195 195 193 173 185 309 307 318 6 120 126 124 128 130 126 121 116 112 110 103 99 98
183 185 186 185 184 185 188 187 188 189 189 191 194 200 200 194 190 191 190 190 194 199 205 206 204 200 192 192 197 197 194 189 182 177 174 169 169 172 171 169 172 180 177 168 239 298 353 108 145 136 131 132 132 131 127 124 120 117 114 106 99 94
183 185 186 186 185 187 189 190 190 190 192 193 195 199 197 191 189 187 188 190 195 203 208 207 203 197 191 194 198 197 195 187 178 173 169 166 166 166 159 145 151 169 162 163 137 137 137 134 145 143 136 136 135 132 131 128 122 117 113 104 95 88
185 185 187 187 188 189 191 193 192 191 194 195 195 196 193 189 187 186 189 192 198 205 208 208 203 198 198 198 198 199 195 188 183 179 178 180 180 178 157 80 71 105 113 158 144 140 147 146 146 146 142 140 137 133 132 128 122 117 111 102 93 84
187 187 188 189 189 190 192 194 194 195 197 196 195 193 191 188 187 188 191 195 201 206 209 210 207 205 204 200 203 203 197 193 192 192 193 191 194 198 179 358 21 114 141 179 163 152 156 151 145 146 144 141 136 133 132 126 120 114 106 97 90 83
189 190 190 191 192 192 194 195 196 199 198 196 194 192 190 187 187 192 194 200 207 210 214 216 218 219 212 207 208 204 200 201 202 203 212 211 214 216 200 250 203 154 169 180 166 158 165 159 148 148 146 141 136 133 130 123 116 110 102 92 85 81
190 191 192 192 193 195 197 198 198 200 200 197 194 192 191 189 190 195 199 207 215 218 219 221 226 232 232 226 219 213 209 211 218 220 226 229 228 226 211 207 188 164 166 176 163 153 164 164 155 152 146 139 137 133 128 121 114 107 99 92 82 72
191 192 193 194 195 198 198 198 199 200 200 199 197 195 193 192 194 198 205 214 220 225 226 226 230 240 243 239 233 227 222 222 226 226 230 233 228 227 213 200 190 170 160 167 158 150 159 160 156 151 142 138 136 132 128 122 115 108 99 92 82 73
190 193 194 195 196 199 198 198 199 199 200 201 200 197 195 195 197 203 210 215 220 227 230 228 231 238 237 236 236 231 231 230 227 227 232 234 231 227 210 197 187 171 159 158 152 151 156 154 151 145 139 139 137 132 130 123 115 108 99 90 81 81
190 193 194 195 196 198 198 197 199 199 199 201 201 198 197 197 201 208 212 213 219 226 228 226 228 233 230 230 231 230 232 228 224 230 233 233 231 223 208 192 177 167 156 147 144 145 150 150 146 142 141 141 137 134 131 123 116 108 99 92 86 86
189 192 193 194 196 196 196 196 197 198 198 201 202 200 199 200 206 211 212 213 219 225 227 228 232 234 233 231 229 230 230 225 225 231 229 226 221 218 208 185 173 173 156 142 140 139 142 146 144 142 143 142 139 138 132 124 118 112 104 97 91 88
189 192 192 193 194 194 194 194 196 197 198 202 203 202 202 203 209 213 213 214 219 224 228 232 236 239 237 235 232 230 228 224 226 227 221 217 212 209 198 181 171 168 158 146 139 135 135 139 141 142 144 144 142 140 134 128 122 116 111 102 96 92
189 191 192 192 193 193 192 194 197 198 200 203 206 205 204 207 211 213 214 217 221 225 229 232 236 236 233 230 228 225 223 221 219 216 210 207 203 191 181 182 168 156 157 152 142 136 133 134 136 138 139 140 143 141 135 132 126 120 113 106 101 96
189 190 191 192 192 193 193 196 200 201 203 206 209 207 207 211 214 215 217 219 222 225 228 231 233 232 227 222 220 219 218 216 211 204 202 200 192 180 173 176 164 152 150 148 143 139 135 132 130 131 132 133 138 138 136 134 130 124 118 111 108 102
188 190 191 191 191 192 193 196 200 201 203 206 209 209 210 215 217 217 218 219 221 224 226 228 229 227 222 218 216 215 213 211 205 197 198 196 186 179 173 167 161 155 147 138 138 139 138 135 126 118 120 124 129 133 134 133 129 126 121 117 117 114
186 188 189 189 188 189 190 192 196 198 199 201 204 207 210 215 217 217 217 219 221 223 224 225 225 223 220 218 214 210 206 204 201 195 195 191 180 175 171 164 158 156 151 142 137 138 142 138 125 113 110 111 115 121 125 128 126 124 122 123 124 119
184 186 188 188 187 189 192 193 194 195 196 197 201 206 209 211 215 216 216 218 220 221 223 223 222 222 222 221 216 209 202 201 198 192 188 182 174 170 167 166 160 153 151 150 147 147 148 142 130 128 125 114 104 107 111 117 121 122 122 123 123 116
185 186 188 190 189 190 193 195 196 195 195 195 200 206 209 211 213 214 214 215 218 221 221 219 219 220 221 222 220 214 204 201 195 186 183 177 172 169 167 169 168 160 154 153 155 157 156 153 147 138 129 123 126 116 102 105 113 118 126 128 123 114
186 187 189 191 191 191 191 193 196 197 195 195 199 203 207 210 211 211 211 212 215 218 218 218 218 218 219 221 219 213 204 197 189 182 183 180 174 172 171 173 175 171 165 160 161 166 168 171 164 153 131 106 142 136 122 138 119 108 124 136 129 119
187 187 189 189 190 189 186 186 186 186 186 188 191 196 200 203 204 206 208 210 210 212 215 216 217 217 217 217 211 205 199 192 186 182 184 185 180 178 179 181 181 179 178 175 172 175 181 190 180 173 164 135 131 145 174 160 138 111 127 143 139 134
189 188 189 188 187 186 183 182 179 176 176 178 182 190 196 197 200 203 206 206 206 208 212 213 215 215 213 212 205 198 194 191 187 185 186 189 188 184 184 188 189 189 189 187 183 184 189 194 189 189 188 172 170 196 165 155 139 106 146 156 152 150
190 189 189 187 185 184 183 182 182 181 181 181 182 188 195 198 201 203 203 204 204 204 208 210 211 211 209 205 199 194 192 191 190 190 191 196 197 193 190 192 196 197 198 197 193 192 194 193 191 199 209 199 193 163 164 163 156 144 153 190 180 163
190 190 189 187 185 185 184 183 184 185 185 185 186 188 192 197 200 201 200 200 201 201 203 206 207 205 202 199 197 193 192 193 193 194 198 203 206 206 204 202 201 202 205 206 204 204 203 198 196 202 207 206 206 169 170 174 174 163 140 145 189 183
190 190 189 186 185 185 186 185 185 184 183 185 187 189 191 194 196 197 197 196 197 198 198 200 202 200 197 197 197 195 195 197 197 200 204 209 213 216 218 217 213 209 209 209 209 212 213 207 204 205 204 201 185 164 168 175 174 163 134 131 175 203
190 190 187 186 184 184 186 187 185 184 183 182 184 187 188 190 192 194 194 194 194 195 195 197 197 196 196 197 197 197 198 199 201 207 211 215 220 223 224 224 223 217 212 209 207 210 214 210 207 208 207 201 183 167 162 161 167 158 133 132 144 170
191 190 186 185 184 184 186 187 187 185 184 182 182 184 184 185 188 189 190 191 191 193 195 197 195 195 197 198 197 198 200 201 205 212 218 221 225 227 226 223 221 216 210 209 206 204 206 204 203 205 207 205 198 187 181 183 180 169 150 140 134 154
190 189 186 184 184 184 186 187 188 187 186 185 184 185 185 186 186 187 188 189 188 190 192 193 195 196 197 198 199 200 202 205 211 218 223 226 227 227 226 220 215 210 206 205 203 202 200 198 199 198 197 199 200 195 195 200 187 176 169 159 148 146
190 189 186 185 184 186 187 188 189 188 188 188 187 189 189 189 189 189 190 189 188 189 190 190 194 197 198 198 201 204 206 208 215 222 225 226 227 228 227 220 211 205 203 202 200 200 198 194 194 193 189 185 186 190 194 199 189 182 176 160 149 142
191 189 186 185 184 186 188 189 190 190 190 189 189 191 192 192 191 192 193 192 193 194 194 195 197 198 198 199 202 206 208 211 218 225 226 225 226 226 223 216 207 199 197 196 193 192 190 186 183 181 179 176 173 177 176 176 185 187 179 164 154 146
191 189 186 185 185 186 187 189 191 191 191 191 191 192 193 194 193 194 195 195 196 198 200 203 203 202 201 201 203 204 206 216 223 225 227 225 221 216 214 209 202 195 190 187 185 183 180 177 174 170 169 170 165 162 160 161 175 188 184 175 166 156
191 188 187 185 185 186 187 188 190 190 191 191 192 192 193 194 195 196 197 198 200 200 202 206 206 205 204 204 205 204 208 219 225 224 223 219 213 207 204 203 197 191 184 181 181 178 173 169 166 162 159 162 161 154 153 157 162 174 181 181 177 168
191 188 187 186 185 186 186 187 188 189 191 192 192 193 193 194 196 198 199 200 202 202 203 206 207 207 208 209 208 208 215 220 220 219 215 210 204 198 197 197 193 189 183 180 179 173 169 164 159 156 153 152 153 148 148 156 159 162 172 179 179 175